Marathon High School FL US WEATHERSTEM current weather conditions

sailwx.info

Wind from 022 at 5 knots gusting 9

Air temperature 17.6° C
Dewpoint 13.1° C

Last reported at 2019-Nov-18 08:00 UTC.
Time now 2019-Nov-18 08:57 UTC

Location: N 24°42' W 081°05'.
View on Google Maps.

See reports from other nearby stations

  
Tides and Currents Weather Stations Pressure Air Temp Water Temp Dewpoint Dewpoint Depression Visibility Wind Speed Wind Dir Waves Ship Positions
date/time (UTC)wind fromknots sea level pressurealtimeterstation pressurevisibilityair tempwater tempwave heightnotes
2019-Nov-18 08:00 022 5 gusting 9 17.6
2019-Nov-18 07:50 355 8 gusting 9 17.6
2019-Nov-18 07:40 342 7 gusting 10 17.6
2019-Nov-18 07:30 346 6 gusting 9 17.6
2019-Nov-18 07:20 343 7 gusting 9 17.6
2019-Nov-18 07:10 355 8 gusting 11 17.6
2019-Nov-18 07:00 005 11 gusting 12 17.6
2019-Nov-18 06:50 014 3 gusting 11 17.7
2019-Nov-18 06:40 344 5 gusting 9 17.7
2019-Nov-18 06:30 348 4 gusting 10 17.7
2019-Nov-18 06:20 024 5 gusting 9 17.8
2019-Nov-18 06:10 026 2 gusting 8 17.8
2019-Nov-18 06:00 360 3 gusting 8 17.9
2019-Nov-18 05:50 347 2 gusting 8 17.9
2019-Nov-18 05:40 013 6 gusting 9 17.8
2019-Nov-18 05:30 350 8 gusting 11 17.7
2019-Nov-18 05:20 350 4 gusting 8 17.7
2019-Nov-18 05:10 009 3 gusting 6 17.6
2019-Nov-18 05:00 029 2 gusting 6 17.4
2019-Nov-18 04:50 026 2 gusting 7 17.6
2019-Nov-18 04:40 011 4 gusting 8 17.8
2019-Nov-18 04:30 024 2 gusting 7 17.8
2019-Nov-18 04:20 028 2 gusting 8 17.9
2019-Nov-18 04:10 005 3 gusting 10 17.9
2019-Nov-18 04:00 005 3 gusting 10 17.9
2019-Nov-18 03:50 351 6 gusting 9 17.9
2019-Nov-18 03:40 016 4 gusting 8 18.0
2019-Nov-18 03:30 009 4 gusting 9 17.9
2019-Nov-18 03:20 038 4 gusting 10 17.8
2019-Nov-18 03:10 360 5 gusting 9 17.7
2019-Nov-18 03:00 054 3 gusting 8 17.5
2019-Nov-18 02:50 045 4 gusting 8 17.4
2019-Nov-18 02:40 038 2 gusting 6 17.4
2019-Nov-18 02:30 033 0 gusting 9 17.4
2019-Nov-18 02:20 025 9 gusting 12 17.6
2019-Nov-18 02:10 005 11 gusting 12 17.9
2019-Nov-18 02:00 355 9 gusting 16 18.1
2019-Nov-18 01:50 336 10 gusting 18 18.3
2019-Nov-18 01:40 005 11 gusting 16 18.7
2019-Nov-18 01:30 335 13 gusting 21 18.6
2019-Nov-18 01:20 350 14 gusting 19 19.0
2019-Nov-18 01:10 337 8 gusting 18 19.4
2019-Nov-18 01:00 005 13 gusting 18 19.6
2019-Nov-18 00:50 328 6 gusting 17 19.8
2019-Nov-18 00:40 342 9 gusting 14 19.9
2019-Nov-18 00:30 355 9 gusting 17 19.9
2019-Nov-18 00:20 343 11 gusting 14 20.0
2019-Nov-18 00:10 304 9 gusting 16 20.1
2019-Nov-18 00:00 355 11 gusting 15 20.1
2019-Nov-17 23:50 311 5 gusting 16 20.0
2019-Nov-17 23:40 323 6 gusting 14 20.0
2019-Nov-17 23:30 313 4 gusting 17 20.0
2019-Nov-17 23:20 314 8 gusting 16 19.9
2019-Nov-17 23:10 360 10 gusting 15 19.9
2019-Nov-17 23:00 355 10 gusting 17 20.0
2019-Nov-17 22:50 327 9 gusting 14 19.9
2019-Nov-17 22:40 316 4 gusting 16 19.7
2019-Nov-17 22:30 315 11 gusting 14 19.7
2019-Nov-17 22:20 311 7 gusting 17 19.8
2019-Nov-17 22:10 319 11 gusting 17 19.7
2019-Nov-17 22:00 303 6 gusting 18 19.8
2019-Nov-17 21:50 307 8 gusting 15 20.2
2019-Nov-17 21:40 348 9 gusting 13 20.1
2019-Nov-17 21:30 344 5 gusting 14 20.1
2019-Nov-17 21:20 360 14 gusting 16 20.2
2019-Nov-17 21:10 317 8 gusting 18 20.2
2019-Nov-17 21:00 309 7 gusting 16 20.3
2019-Nov-17 20:50 326 8 gusting 17 20.4
2019-Nov-17 20:40 317 13 gusting 17 20.6
2019-Nov-17 20:30 286 6 gusting 15 21.0
2019-Nov-17 20:20 311 7 gusting 15 20.8
2019-Nov-17 20:10 335 12 gusting 17 20.8
2019-Nov-17 20:00 333 7 gusting 18 20.9
2019-Nov-17 19:50 355 8 gusting 19 20.7
2019-Nov-17 19:40 311 11 gusting 17 20.6
2019-Nov-17 19:30 309 10 gusting 19 20.6
2019-Nov-17 19:20 309 6 gusting 17 20.4
2019-Nov-17 19:10 320 7 gusting 16 20.4
2019-Nov-17 19:00 315 7 gusting 14 20.5
2019-Nov-17 18:50 313 13 gusting 19 20.3
2019-Nov-17 18:40 322 8 gusting 16 20.7
2019-Nov-17 18:30 355 10 gusting 17 20.8
2019-Nov-17 18:20 329 9 gusting 18 20.4
2019-Nov-17 18:10 310 6 gusting 15 20.3
2019-Nov-17 18:00 305 6 gusting 16 20.3
2019-Nov-17 17:50 302 7 gusting 16 20.6
2019-Nov-17 17:40 303 6 gusting 15 20.1
2019-Nov-17 17:30 343 6 gusting 15 19.8
2019-Nov-17 17:20 355 14 gusting 18 18.9
2019-Nov-17 17:10 348 12 gusting 16 18.6
2019-Nov-17 17:00 005 11 gusting 16 18.4
2019-Nov-17 16:50 360 7 gusting 15 18.7
2019-Nov-17 16:40 348 9 gusting 18 18.7
2019-Nov-17 16:30 330 13 gusting 17 18.7
2019-Nov-17 16:20 340 11 gusting 15 18.7
2019-Nov-17 16:10 338 7 gusting 18 18.3
2019-Nov-17 16:00 355 10 gusting 18 18.4
2019-Nov-17 15:40 355 11 gusting 19 18.5
2019-Nov-17 15:30 355 14 gusting 18 18.5
2019-Nov-17 15:20 338 12 gusting 17 18.7
2019-Nov-17 15:10 009 9 gusting 17 18.8
2019-Nov-17 15:00 355 12 gusting 18 19.2
2019-Nov-17 14:50 005 8 gusting 16 19.0
2019-Nov-17 14:40 005 11 gusting 16 19.2
2019-Nov-17 14:30 360 9 gusting 13 19.1
2019-Nov-17 14:20 009 8 gusting 16 19.2
2019-Nov-17 14:10 350 8 gusting 18 19.7
2019-Nov-17 14:00 338 11 gusting 15 20.3
2019-Nov-17 13:50 005 7 gusting 15 20.6
2019-Nov-17 13:40 342 9 gusting 16 20.6
2019-Nov-17 13:30 314 10 gusting 14 20.6
2019-Nov-17 13:20 326 7 gusting 17 20.6
2019-Nov-17 13:10 333 8 gusting 16 20.7
2019-Nov-17 13:00 317 6 gusting 15 20.7
2019-Nov-17 12:50 299 9 gusting 16 20.7
2019-Nov-17 12:40 315 7 gusting 14 20.7
2019-Nov-17 12:30 306 8 gusting 16 20.6
2019-Nov-17 12:20 312 8 gusting 14 20.5
2019-Nov-17 12:10 325 5 gusting 16 20.4
2019-Nov-17 12:00 315 4 gusting 16 20.4
2019-Nov-17 11:50 310 7 gusting 16 20.2
2019-Nov-17 11:40 310 8 gusting 13 20.1
2019-Nov-17 11:30 298 9 gusting 15 20.0
2019-Nov-17 11:20 319 11 gusting 16 19.9
2019-Nov-17 11:10 330 7 gusting 13 19.8
2019-Nov-17 11:00 281 6 gusting 15 19.7
2019-Nov-17 10:50 324 10 gusting 13 19.1
2019-Nov-17 10:40 342 5 gusting 13 18.8
2019-Nov-17 10:30 333 9 gusting 15 18.8
2019-Nov-17 10:20 325 5 gusting 13 18.6
2019-Nov-17 10:10 347 11 gusting 14 18.5
2019-Nov-17 10:00 329 8 gusting 13 18.4
2019-Nov-17 09:50 346 9 gusting 13 18.4
2019-Nov-17 09:40 341 9 gusting 14 18.4
2019-Nov-17 09:30 348 13 gusting 13 18.4
2019-Nov-17 09:20 348 9 gusting 13 18.4
2019-Nov-17 09:10 355 11 gusting 14 18.5
2019-Nov-17 09:00 349 9 gusting 13 18.6
2019-Nov-17 08:50 355 9 gusting 14 18.6
2019-Nov-17 08:40 315 3 gusting 14 18.5
2019-Nov-17 08:30 348 11 gusting 15 18.4
2019-Nov-17 08:20 347 12 gusting 14 18.4
2019-Nov-17 08:10 005 11 gusting 13 18.4
2019-Nov-17 08:00 355 10 gusting 14 18.5
2019-Nov-17 07:50 343 7 gusting 14 18.6
2019-Nov-17 07:40 344 6 gusting 15 18.7
2019-Nov-17 07:30 351 12 gusting 14 18.8
2019-Nov-17 07:20 009 10 gusting 16 18.9
2019-Nov-17 07:10 336 10 gusting 16 19.2
2019-Nov-17 07:00 355 13 gusting 15 19.4
2019-Nov-17 06:50 355 11 gusting 15 19.4
2019-Nov-17 06:40 360 9 gusting 14 19.6
2019-Nov-17 06:30 355 13 gusting 16 19.8
2019-Nov-17 06:20 355 12 gusting 17 20.0
2019-Nov-17 06:10 340 9 gusting 16 20.2
2019-Nov-17 06:00 022 11 gusting 17 20.3
2019-Nov-17 05:50 017 13 gusting 18 20.8
2019-Nov-17 05:40 321 6 gusting 19 21.0
2019-Nov-17 05:30 355 8 gusting 15 21.1
2019-Nov-17 05:20 348 10 gusting 15 21.1
2019-Nov-17 05:10 360 8 gusting 16 21.1
2019-Nov-17 05:00 350 7 gusting 13 21.2
2019-Nov-17 04:50 339 11 gusting 13 21.2
2019-Nov-17 04:40 294 6 gusting 15 21.3
2019-Nov-17 04:30 350 5 gusting 14 21.4
2019-Nov-17 04:20 347 10 gusting 16 21.6
2019-Nov-17 04:10 332 8 gusting 14 21.7
2019-Nov-17 04:00 322 6 gusting 18 21.7
2019-Nov-17 03:50 350 6 gusting 18 21.9
2019-Nov-17 03:40 306 4 gusting 15 22.1
2019-Nov-17 03:30 331 9 gusting 12 21.9
2019-Nov-17 03:20 342 8 gusting 16 21.9
2019-Nov-17 03:10 332 10 gusting 15 21.9
2019-Nov-17 03:00 314 5 gusting 13 22.1
2019-Nov-17 02:50 331 6 gusting 14 22.2
2019-Nov-17 02:40 325 10 gusting 13 22.1
2019-Nov-17 02:30 322 10 gusting 14 22.1
2019-Nov-17 02:20 336 6 gusting 14 22.2
2019-Nov-17 02:10 320 10 gusting 15 22.2
2019-Nov-17 02:00 301 6 gusting 15 22.4
2019-Nov-17 01:50 311 3 gusting 15 22.3
2019-Nov-17 01:40 316 5 gusting 14 22.4
2019-Nov-17 01:30 327 11 gusting 15 22.4
2019-Nov-17 01:20 336 9 gusting 17 22.4
2019-Nov-17 01:10 321 10 gusting 16 22.6
2019-Nov-17 01:00 305 8 gusting 19 22.6
2019-Nov-17 00:50 322 10 gusting 17 22.6
2019-Nov-17 00:40 312 6 gusting 17 22.6
2019-Nov-17 00:30 350 9 gusting 16 22.5
2019-Nov-17 00:20 331 12 gusting 19 22.6
2019-Nov-17 00:10 324 10 gusting 17 22.6
2019-Nov-17 00:00 303 11 gusting 17 22.6
2019-Nov-16 23:50 298 6 gusting 17 22.8
2019-Nov-16 23:40 333 6 gusting 16 23.1
2019-Nov-16 23:30 303 11 gusting 18 23.3
2019-Nov-16 23:20 298 8 gusting 16 23.3
2019-Nov-16 23:10 322 8 gusting 17 23.4
2019-Nov-16 23:00 327 9 gusting 17 23.5
2019-Nov-16 22:50 327 5 gusting 18 23.6
2019-Nov-16 22:40 310 10 gusting 16 23.9
2019-Nov-16 22:30 272 6 gusting 15 23.7
2019-Nov-16 22:20 311 8 gusting 15 23.8
2019-Nov-16 22:10 304 8 gusting 15 23.9
2019-Nov-16 22:00 313 9 gusting 18 23.8
2019-Nov-16 21:50 339 11 gusting 14 23.9
2019-Nov-16 21:40 304 10 gusting 19 24.0
2019-Nov-16 21:30 300 10 gusting 17 24.1
2019-Nov-16 21:20 292 10 gusting 17 24.3
2019-Nov-16 21:10 332 8 gusting 16 24.1
2019-Nov-16 21:00 304 7 gusting 15 24.2
2019-Nov-16 20:50 268 8 gusting 16 24.4
2019-Nov-16 20:40 309 9 gusting 16 24.2
2019-Nov-16 20:30 327 10 gusting 18 24.5
2019-Nov-16 20:20 318 9 gusting 16 24.5
2019-Nov-16 20:10 298 13 gusting 16 24.7
2019-Nov-16 20:00 270 8 gusting 17 24.4
2019-Nov-16 19:50 323 16 gusting 19 24.8
2019-Nov-16 19:40 318 13 gusting 19 24.6
2019-Nov-16 19:30 323 6 gusting 17 24.6
2019-Nov-16 19:20 305 7 gusting 17 24.7
2019-Nov-16 19:10 311 8 gusting 16 25.1
2019-Nov-16 19:00 303 7 gusting 16 24.9
2019-Nov-16 18:50 299 12 gusting 16 24.8
2019-Nov-16 18:40 328 8 gusting 18 24.8
2019-Nov-16 18:30 316 8 gusting 17 24.6
2019-Nov-16 18:20 355 10 gusting 17 24.6
2019-Nov-16 18:10 337 7 gusting 16 24.6
2019-Nov-16 18:00 306 6 gusting 18 24.5
2019-Nov-16 17:50 307 6 gusting 18 24.5
2019-Nov-16 17:40 315 7 gusting 15 24.3
2019-Nov-16 17:30 337 15 gusting 18 23.8
2019-Nov-16 17:20 323 8 gusting 14 23.7
2019-Nov-16 17:10 348 14 gusting 16 23.8
2019-Nov-16 17:00 312 4 gusting 13 23.9
2019-Nov-16 16:50 321 8 gusting 13 24.1
2019-Nov-16 16:40 308 3 gusting 12 23.9
2019-Nov-16 16:30 355 6 gusting 14 23.8
2019-Nov-16 16:20 333 7 gusting 14 23.3
2019-Nov-16 16:10 005 7 gusting 13 23.1
2019-Nov-16 16:00 309 9 gusting 13 23.3
2019-Nov-16 15:50 355 10 gusting 13 23.2
2019-Nov-16 15:40 343 13 gusting 13 23.1
2019-Nov-16 15:30 351 8 gusting 12 22.8
2019-Nov-16 15:20 341 9 gusting 13 22.4
2019-Nov-16 15:10 338 5 gusting 12 22.3
2019-Nov-16 15:00 360 5 gusting 13 21.9
2019-Nov-16 14:50 346 9 gusting 14 21.8
2019-Nov-16 14:40 331 11 gusting 14 22.1
2019-Nov-16 14:30 345 10 gusting 13 21.9
2019-Nov-16 14:20 360 12 gusting 13 21.7
2019-Nov-16 14:10 348 11 gusting 13 21.8
2019-Nov-16 14:00 013 6 gusting 13 22.1
2019-Nov-16 13:50 030 7 gusting 13 21.8
2019-Nov-16 13:40 341 6 gusting 13 21.7
2019-Nov-16 13:30 348 8 gusting 13 21.8
2019-Nov-16 13:20 349 8 gusting 11 21.6
2019-Nov-16 13:10 340 10 gusting 13 21.6
2019-Nov-16 13:00 355 7 gusting 13 21.5
2019-Nov-16 12:50 355 10 gusting 13 21.4
2019-Nov-16 12:40 360 10 gusting 14 21.3
2019-Nov-16 12:30 348 12 gusting 14 21.3
2019-Nov-16 12:20 360 7 gusting 13 21.3
2019-Nov-16 12:10 009 10 gusting 15 21.3
2019-Nov-16 12:00 344 11 gusting 16 21.4
2019-Nov-16 11:50 346 13 gusting 15 21.4
2019-Nov-16 11:40 355 10 gusting 14 21.4
2019-Nov-16 11:30 21.2
2019-Nov-16 11:20 21.1
2019-Nov-16 11:10 21.2
2019-Nov-16 11:00 21.1
2019-Nov-16 10:50 21.1
2019-Nov-16 10:40 20.9
2019-Nov-16 10:30 20.9
2019-Nov-16 10:20 21.0
2019-Nov-16 10:10 21.0
2019-Nov-16 10:00 21.0
2019-Nov-16 09:50 20.9
2019-Nov-16 09:40 20.9
2019-Nov-16 09:30 21.1
2019-Nov-16 09:20 21.4
2019-Nov-16 09:10 21.4
2019-Nov-16 09:00 21.4
2019-Nov-16 08:50 21.8
2019-Nov-16 08:40 21.6
2019-Nov-16 08:30 21.7
2019-Nov-16 08:20 21.8
2019-Nov-16 08:10 22.0
2019-Nov-16 08:00 22.3